User: anonymous   Login
Location: Simferopol
(44.5000°N, 34.0000°E)
Time: 10:15:33
(UTC+03:00)
Language:

ISS - Orbit

View from above orbital plane
View from above orbital plane
View from above satellite
View from above satellite

Ground track
Ground track

The orbit data is extracted from the following two-line orbital elements,

1 25544U 98067A   21172.87882248  .00001135  00000-0  28751-4 0  9997
2 25544  51.6450 319.5202 0003355 117.4927 349.5025 15.49009694289321
Epoch (UTC): 21 June 2021 21:05:30
Eccentricity: 0.0003355
inclination: 51.6450°
perigee height: 417 km
apogee height: 422 km
right ascension of ascending node: 319.5202°
argument of perigee: 117.4927°
revolutions per day: 15.49009694
mean anomaly at epoch: 349.5025°
orbit number at epoch: 28932

The dashed part of the orbit path shows where the satellite is in the earth's shadow,  

DLR